Regional Weather Roundup
Issued by NWS

Home | Current Version | Previous Version | Text Only | Print | Product List | Glossary Off
Versions: 1 2 3 4 5 6 7 8 9 10 11 12 13 14 15 16 17 18 19 20 21 22 23 24 25 26 27 28 29 30 31 32 33 34 35 36 37 38 39 40 41 42 43 44 45 46 47 48 49 50

000
ASUS43 KFSD 261710
RWRSD

WEATHER ROUNDUP FOR SOUTH DAKOTA
NATIONAL WEATHER SERVICE SIOUX FALLS SD
1200 PM CDT TUE MAY 26 2015

NOTE: "FAIR" INDICATES FEW OR NO CLOUDS BELOW 12,000 FEET WITH NO
SIGNIFICANT WEATHER AND/OR OBSTRUCTIONS TO VISIBILITY.


SDZ001>005-009-010-012>017-261800-
NORTHWEST AND NORTH CENTRAL SOUTH DAKOTA

CITY           SKY/WX    TMP DP  RH WIND       PRES   REMARKS
BUFFALO          N/A     65  51  60 S9        29.91S
FAITH            N/A     66  49  54 SW5       29.96F
MOBRIDGE       SUNNY     71  53  52 NW14      29.89F
$$

SDZ012>016-024>037-041>051-057-063-072>074-261800-
SOUTHWEST AND SOUTH CENTRAL SOUTH DAKOTA

CITY           SKY/WX    TMP DP  RH WIND       PRES   REMARKS
RAPID CTY ARPT MOSUNNY   59  52  77 SW9       29.99S
PIERRE         SUNNY     69  51  52 NW18      29.91S
CUSTER         PTSUNNY   54  46  74 VRB6      30.04R
ELLSWORTH AFB  MOSUNNY   64  52  66 S15       29.98S
PHILIP         SUNNY     68  51  54 SW8       29.96S
PINE RIDGE     PTSUNNY   62  48  60 VRB3      30.01R
SPEARFISH      FAIR      63  50  63 NW5       29.99S
WINNER         PTSUNNY   66  51  58 N15       29.93S
$$

SDZ004>011-016>023-039-040-261800-
NORTHEAST SOUTH DAKOTA

CITY           SKY/WX    TMP DP  RH WIND       PRES   REMARKS
ABERDEEN       MOSUNNY   73  55  53 N12       29.86S
WATERTOWN      CLOUDY    64  51  62 N10       29.86R
BROOKINGS      CLOUDY    63  52  67 N12       29.85S
SISSETON         N/A     69  52  54 NE5       29.84S
$$

SDZ017-020-022-023-036>040-048>070-261800-
SOUTHEAST SOUTH DAKOTA

CITY           SKY/WX    TMP DP  RH WIND       PRES   REMARKS
SIOUX FALLS    CLOUDY    58  52  80 N10       29.84R
HURON          MOSUNNY   69  54  58 N10       29.86S
CHAMBERLAIN    MOSUNNY   67  52  57 NW16G22   29.91S
MITCHELL       PTSUNNY   69  50  50 N13       29.88R
YANKTON        PTSUNNY   59  52  77 N14       29.85S
$$

ABBREVIATIONS USED IN REMARKS
   TC - TEMPERATURE IN CELSIUS
  WCI - WIND CHILL INDEX
   HX - HEAT INDEX
  VSB - VISIBILITY



USA.gov is the U.S. government's official web portal to all federal, state and local government web resources and services.